EW8497 Weather Reports


time (UTC)temp
C
wind
direction
speed
KPH
gust
KPH
rain 1hr
cm
rain 24hr
cm
rain mn
cm
humidity
%
barometer
mb
20260906104556 17 0 0.0 4.8 0.00 0.03 0.00 94 1018.3
20260906103055 17 61 3.2 9.7 0.00 0.03 0.00 94 1018.1
20260906101603 17 59 4.8 11.3 0.00 0.03 0.00 93 1017.7
20260906100056 17 51 4.8 9.7 0.00 0.03 0.00 94 1017.9
20260906094556 17 66 4.8 8.0 0.00 0.03 0.00 93 1017.9
20260906093116 17 53 3.2 8.0 0.00 0.03 0.00 93 1017.9
20260906091604 17 66 3.2 4.8 0.00 0.03 0.00 93 1017.9
20260906090119 17 67 0.0 4.8 0.00 0.03 0.00 92 1018.0
20260906084559 17 67 1.6 6.4 0.00 0.03 0.00 92 1017.8
20260906083056 17 63 3.2 8.0 0.00 0.03 0.00 92 1017.9
20260906081601 18 67 3.2 8.0 0.00 0.03 0.00 92 1017.9
20260906080100 18 71 4.8 11.3 0.00 0.03 0.00 92 1017.9
20260906074555 18 46 4.8 9.7 0.00 0.03 0.00 92 1018.0
20260906073100 18 49 3.2 8.0 0.00 0.03 0.00 93 1018.0
20260906071610 18 44 3.2 8.0 0.00 0.03 0.00 93 1018.2
20260906070100 18 51 4.8 8.0 0.00 0.03 0.00 93 1018.1
20260906064601 18 52 3.2 6.4 0.00 0.03 0.00 93 1018.2
20260906063056 18 52 0.0 4.8 0.00 0.03 0.00 92 1018.5
20260906061555 18 52 0.0 4.8 0.00 0.03 0.00 92 1018.4
20260906060104 18 52 1.6 4.8 0.00 0.03 0.00 92 1018.4
20260906054600 19 52 1.6 4.8 0.00 0.03 0.00 92 1018.3
20260906053056 19 52 1.6 6.4 0.00 0.03 0.00 91 1018.3
20260906051556 20 53 3.2 8.0 0.00 0.03 0.00 90 1018.1
20260906050131 20 53 4.8 11.3 0.00 0.03 0.00 89 1017.9
20260906044605 20 53 4.8 12.9 0.00 0.03 0.03 88 1017.8
20260906043110 20 71 8.0 17.7 0.00 0.03 0.03 87 1017.6
20260906041602 21 74 11.3 17.7 0.00 0.03 0.03 87 1017.4
20260906040101 21 59 6.4 19.3 0.00 0.03 0.03 87 1017.2
20260906034600 21 68 8.0 16.1 0.00 0.03 0.03 87 1017.0
20260906033056 21 65 9.7 22.5 0.00 0.03 0.03 87 1016.7
20260906031557 22 69 8.0 16.1 0.00 0.03 0.03 87 1016.6
20260906030114 22 80 6.4 19.3 0.00 0.03 0.03 87 1016.4
20260906024555 22 63 9.7 17.7 0.00 0.03 0.03 87 1016.2
20260906023116 22 58 6.4 14.5 0.00 0.03 0.03 86 1016.0
20260906021611 22 59 4.8 8.0 0.00 0.03 0.03 87 1016.0
20260906020104 22 54 4.8 12.9 0.00 0.03 0.03 86 1015.7
20260906014553 22 60 4.8 9.7 0.00 0.03 0.03 85 1015.5
20260906013057 22 59 4.8 11.3 0.00 0.03 0.03 85 1015.4
20260906011554 22 46 4.8 9.7 0.00 0.03 0.03 84 1015.3
20260906010059 22 53 4.8 12.9 0.00 0.03 0.03 84 1015.2
20260906004600 22 38 4.8 9.7 0.00 0.03 0.03 83 1015.4
20260906003107 22 37 4.8 8.0 0.00 0.03 0.03 82 1015.5
20260906001603 23 38 3.2 8.0 0.00 0.03 0.03 81 1015.5
20260906000107 23 44 4.8 11.3 0.00 0.03 0.03 80 1015.4
20260905234615 24 44 6.4 16.1 0.00 0.03 0.03 79 1015.5
20260905233059 24 38 8.0 17.7 0.00 0.03 0.03 78 1015.7
20260905231600 25 28 9.7 17.7 0.00 0.03 0.03 78 1015.7
20260905230058 25 34 4.8 17.7 0.00 0.03 0.03 77 1015.8
20260905224556 26 55 6.4 12.9 0.00 0.03 0.03 75 1015.8
20260905223057 26 12 3.2 11.3 0.00 0.03 0.03 78 1016.0
20260905221602 26 21 6.4 14.5 0.00 0.03 0.03 79 1015.8
20260905220059 26 5 3.2 14.5 0.00 0.03 0.03 76 1015.9
20260905214611 26 355 3.2 8.0 0.00 0.03 0.03 77 1015.8
20260905213114 25 51 8.0 16.1 0.00 0.03 0.03 78 1015.6
20260905211603 25 19 8.0 19.3 0.00 0.03 0.03 80 1015.5
20260905210106 25 34 8.0 17.7 0.00 0.03 0.03 81 1015.7
20260905204602 25 360 9.7 17.7 0.00 0.03 0.03 81 1016.0
20260905203058 25 48 9.7 20.9 0.00 0.03 0.03 81 1016.0
20260905201607 25 360 11.3 19.3 0.00 0.03 0.03 81 1015.9
20260905194602 25 53 11.3 16.1 0.00 0.03 0.03 81 1015.9
20260905193059 25 25 8.0 17.7 0.00 0.03 0.03 84 1016.2
20260905191600 25 55 6.4 16.1 0.00 0.03 0.03 81 1016.2
20260905190054 25 21 6.4 16.1 0.00 0.03 0.03 81 1015.9
20260905184611 25 355 8.0 16.1 0.00 0.03 0.03 85 1016.1
20260905183118 25 12 8.0 17.7 0.00 0.03 0.03 82 1015.9
20260905181601 25 34 11.3 19.3 0.00 0.03 0.03 82 1016.1
20260905180059 25 360 9.7 17.7 0.00 0.03 0.03 82 1016.1
20260905174629 25 42 11.3 19.3 0.00 0.03 0.03 83 1016.2
20260905173112 25 36 9.7 17.7 0.00 0.03 0.03 83 1016.3
20260905171602 25 355 8.0 16.1 0.00 0.03 0.03 84 1016.5
20260905170107 24 342 8.0 14.5 0.00 0.03 0.03 86 1016.3
20260905164604 24 28 9.7 16.1 0.00 0.03 0.03 87 1016.4
20260905163107 24 5 8.0 17.7 0.00 0.03 0.03 86 1016.3
20260905161559 24 40 9.7 17.7 0.00 0.03 0.03 86 1016.4
20260905160059 24 29 11.3 20.9 0.00 0.03 0.03 86 1016.3
20260905154604 23 37 8.0 16.1 0.00 0.05 0.03 89 1016.2
20260905153106 23 49 8.0 19.3 0.00 0.05 0.03 89 1016.2
20260905151601 23 44 9.7 20.9 0.00 0.05 0.03 90 1016.1
20260905150105 23 11 9.7 22.5 0.00 0.05 0.03 89 1015.9
20260905144608 23 31 8.0 19.3 0.00 0.05 0.03 89 1015.7
20260905143105 24 26 11.3 17.7 0.00 0.05 0.03 89 1015.3
20260905141612 24 59 9.7 17.7 0.00 0.05 0.03 90 1015.2
20260905140105 24 53 11.3 19.3 0.00 0.05 0.03 93 1014.7
20260905134610 23 23 8.0 14.5 0.00 0.05 0.03 94 1014.6
20260905133101 23 350 3.2 6.4 0.00 0.05 0.03 94 1014.5
20260905131606 23 350 0.0 4.8 0.00 0.05 0.03 94 1014.5
20260905130106 22 350 0.0 6.4 0.03 0.05 0.03 94 1014.5
20260905124604 22 350 1.6 6.4 0.03 0.05 0.03 94 1014.3
20260905123103 22 350 3.2 6.4 0.03 0.05 0.03 94 1014.2
20260905121602 22 350 0.0 4.8 0.03 0.05 0.03 94 1014.2
20260905120059 22 350 0.0 6.4 0.00 0.03 0.00 94 1014.1
20260905114636 22 348 3.2 9.7 0.00 0.03 0.00 94 1013.6
20260905113101 22 318 0.0 6.4 0.00 0.03 0.00 94 1013.5
20260905111559 21 360 4.8 12.9 0.00 0.03 0.00 94 1013.2
20260905110055 21 11 6.4 14.5 0.00 0.03 0.00 94 1013.2